TimeEST,TemperatureF,Dew PointF,Humidity,Sea Level PressureIn,VisibilityMPH,Wind Direction,Wind SpeedMPH,Gust SpeedMPH,PrecipitationIn,Events,Conditions,WindDirDegrees,DateUTC
12:15 AM,30.2,28.4,93,30.25,0.2,Calm,Calm,-,N/A,,Overcast,0,2013-02-26 05:15:00
12:35 AM,30.2,28.4,93,30.25,0.2,Calm,Calm,-,N/A,,Overcast,0,2013-02-26 05:35:00
12:55 AM,30.2,28.4,93,30.25,0.2,Calm,Calm,-,N/A,,Overcast,0,2013-02-26 05:55:00
1:15 AM,30.2,28.4,93,30.26,0.2,Calm,Calm,-,N/A,,Overcast,0,2013-02-26 06:15:00
1:35 AM,30.2,28.4,93,30.24,0.2,Calm,Calm,-,N/A,,Overcast,0,2013-02-26 06:35:00
1:55 AM,30.2,28.4,93,30.24,0.2,Calm,Calm,-,N/A,,Overcast,0,2013-02-26 06:55:00
2:15 AM,30.2,28.4,93,30.23,0.5,Calm,Calm,-,N/A,,Overcast,0,2013-02-26 07:15:00
2:35 AM,30.2,28.4,93,30.25,0.5,Calm,Calm,-,N/A,,Overcast,0,2013-02-26 07:35:00
2:55 AM,30.2,28.4,93,30.26,1.0,Calm,Calm,-,N/A,,Overcast,0,2013-02-26 07:55:00
3:15 AM,30.2,28.4,93,30.27,1.2,NNE,3.5,-,N/A,,Overcast,20,2013-02-26 08:15:00
3:35 AM,30.2,28.4,93,30.26,0.5,Calm,Calm,-,N/A,,Overcast,0,2013-02-26 08:35:00
3:55 AM,30.2,28.4,93,30.27,0.2,Calm,Calm,-,N/A,,Overcast,0,2013-02-26 08:55:00
4:15 AM,30.2,28.4,93,30.28,0.5,Calm,Calm,-,N/A,,Overcast,0,2013-02-26 09:15:00
4:35 AM,30.2,28.4,93,30.27,0.2,Calm,Calm,-,N/A,,Overcast,0,2013-02-26 09:35:00
4:55 AM,30.2,28.4,93,30.28,0.5,Calm,Calm,-,N/A,,Overcast,0,2013-02-26 09:55:00
5:15 AM,30.2,28.4,93,30.28,1.8,North,3.5,-,N/A,,Overcast,360,2013-02-26 10:15:00
5:35 AM,30.2,28.4,93,30.29,1.8,Calm,Calm,-,N/A,,Overcast,0,2013-02-26 10:35:00
5:55 AM,30.2,28.4,93,30.29,2.0,Calm,Calm,-,N/A,,Overcast,0,2013-02-26 10:55:00
6:15 AM,30.2,28.4,93,30.30,1.0,Calm,Calm,-,N/A,,Overcast,0,2013-02-26 11:15:00
6:35 AM,30.2,26.6,86,30.29,0.2,Calm,Calm,-,N/A,,Overcast,0,2013-02-26 11:35:00
6:55 AM,30.2,26.6,86,30.30,0.2,NW,3.5,-,N/A,,Overcast,320,2013-02-26 11:55:00
7:15 AM,30.2,28.4,93,30.30,0.2,Calm,Calm,-,N/A,,Overcast,0,2013-02-26 12:15:00
7:35 AM,30.2,28.4,93,30.31,0.2,Calm,Calm,-,N/A,,Overcast,0,2013-02-26 12:35:00
7:55 AM,30.2,28.4,93,30.32,0.2,NNE,3.5,-,N/A,,Overcast,30,2013-02-26 12:55:00
8:15 AM,28.4,28.4,100,30.32,0.2,Calm,Calm,-,N/A,,Overcast,0,2013-02-26 13:15:00
8:35 AM,30.2,26.6,86,30.32,0.2,Calm,Calm,-,N/A,,Overcast,0,2013-02-26 13:35:00
8:55 AM,30.2,28.4,93,30.32,0.2,Calm,Calm,-,N/A,,Overcast,0,2013-02-26 13:55:00
9:15 AM,30.2,28.4,93,30.33,0.5,Calm,Calm,-,N/A,,Overcast,0,2013-02-26 14:15:00
9:35 AM,30.2,28.4,93,30.33,1.0,Calm,Calm,-,N/A,,Overcast,0,2013-02-26 14:35:00
9:55 AM,30.2,28.4,93,30.32,3.0,Calm,Calm,-,N/A,,Overcast,0,2013-02-26 14:55:00
10:15 AM,30.2,28.4,93,30.31,2.0,Calm,Calm,-,N/A,,Mostly Cloudy,0,2013-02-26 15:15:00
10:35 AM,32.0,28.4,87,30.31,6.0,Calm,Calm,-,N/A,,Mostly Cloudy,0,2013-02-26 15:35:00
10:55 AM,33.8,30.2,87,30.31,8.0,SSW,4.6,-,N/A,,Overcast,200,2013-02-26 15:55:00
11:15 AM,35.6,32.0,87,30.31,10.0,SSW,3.5,-,N/A,,Mostly Cloudy,200,2013-02-26 16:15:00
11:36 AM,37.4,32.0,81,30.31,10.0,SSW,6.9,-,N/A,,Mostly Cloudy,200,2013-02-26 16:36:00
11:55 AM,39.2,30.2,70,30.30,10.0,SSW,6.9,-,N/A,,Overcast,210,2013-02-26 16:55:00
12:15 PM,39.2,28.4,65,30.29,10.0,South,6.9,16.1,N/A,,Overcast,190,2013-02-26 17:15:00
12:35 PM,39.2,26.6,61,30.30,10.0,South,9.2,-,N/A,,Overcast,190,2013-02-26 17:35:00
12:55 PM,39.2,26.6,61,30.30,10.0,South,4.6,-,N/A,,Overcast,190,2013-02-26 17:55:00
1:15 PM,39.2,26.6,61,30.29,10.0,South,8.1,-,N/A,,Overcast,180,2013-02-26 18:15:00
1:35 PM,39.2,26.6,61,30.29,10.0,South,3.5,-,N/A,,Overcast,170,2013-02-26 18:35:00
1:55 PM,39.2,26.6,61,30.28,10.0,Calm,Calm,-,N/A,,Overcast,0,2013-02-26 18:55:00
2:15 PM,39.2,26.6,61,30.27,10.0,Calm,Calm,-,N/A,,Overcast,0,2013-02-26 19:15:00
2:35 PM,39.2,26.6,61,30.26,10.0,Calm,Calm,-,N/A,,Overcast,0,2013-02-26 19:35:00
2:55 PM,39.2,26.6,61,30.26,10.0,ESE,3.5,-,N/A,,Overcast,110,2013-02-26 19:55:00
3:15 PM,39.2,28.4,65,30.25,10.0,Calm,Calm,-,N/A,,Overcast,0,2013-02-26 20:15:00
3:35 PM,39.2,26.6,61,30.25,10.0,Calm,Calm,-,N/A,,Overcast,0,2013-02-26 20:35:00
3:55 PM,39.2,26.6,61,30.25,10.0,ESE,4.6,-,N/A,,Overcast,120,2013-02-26 20:55:00
4:15 PM,39.2,26.6,61,30.25,10.0,Calm,Calm,-,N/A,,Overcast,0,2013-02-26 21:15:00
4:35 PM,39.2,28.4,65,30.24,10.0,ESE,3.5,-,N/A,,Overcast,120,2013-02-26 21:35:00
4:55 PM,37.4,28.4,70,30.24,10.0,Calm,Calm,-,N/A,,Overcast,0,2013-02-26 21:55:00
5:15 PM,37.4,26.6,65,30.24,10.0,Calm,Calm,-,N/A,,Overcast,0,2013-02-26 22:15:00
5:35 PM,37.4,26.6,65,30.24,10.0,Calm,Calm,-,N/A,,Overcast,0,2013-02-26 22:35:00
5:55 PM,37.4,26.6,65,30.24,10.0,Calm,Calm,-,N/A,,Overcast,0,2013-02-26 22:55:00
6:15 PM,37.4,26.6,65,30.24,10.0,Calm,Calm,-,N/A,,Overcast,0,2013-02-26 23:15:00
6:35 PM,37.4,26.6,65,30.24,10.0,SSE,3.5,-,N/A,,Overcast,150,2013-02-26 23:35:00
6:55 PM,37.4,24.8,60,30.23,10.0,ESE,4.6,-,N/A,,Overcast,110,2013-02-26 23:55:00
7:15 PM,37.4,24.8,60,30.23,10.0,Calm,Calm,-,N/A,,Overcast,0,2013-02-27 00:15:00
7:35 PM,37.4,24.8,60,30.24,10.0,ESE,3.5,-,N/A,,Scattered Clouds,110,2013-02-27 00:35:00
7:55 PM,37.4,23.0,56,30.24,10.0,Calm,Calm,-,N/A,,Partly Cloudy,0,2013-02-27 00:55:00
8:15 PM,35.6,23.0,60,30.25,10.0,Calm,Calm,-,N/A,,Clear,0,2013-02-27 01:15:00
8:35 PM,35.6,23.0,60,30.24,10.0,Calm,Calm,-,N/A,,Clear,0,2013-02-27 01:35:00
8:55 PM,35.6,24.8,65,30.22,10.0,East,3.5,-,N/A,,Clear,90,2013-02-27 01:55:00
9:15 PM,35.6,24.8,65,30.21,10.0,Calm,Calm,-,N/A,,Clear,0,2013-02-27 02:15:00
9:35 PM,35.6,24.8,65,30.21,10.0,South,3.5,-,N/A,,Clear,190,2013-02-27 02:35:00
10:15 PM,35.6,24.8,65,30.18,10.0,Calm,Calm,-,N/A,,Clear,0,2013-02-27 03:15:00
10:35 PM,35.6,24.8,65,30.17,10.0,NE,3.5,-,N/A,,Clear,50,2013-02-27 03:35:00
10:55 PM,35.6,24.8,65,30.15,10.0,NE,3.5,-,N/A,,Partly Cloudy,40,2013-02-27 03:55:00
11:15 PM,35.6,24.8,65,30.15,10.0,ENE,3.5,-,N/A,,Partly Cloudy,70,2013-02-27 04:15:00
11:55 PM,35.6,24.8,65,30.14,10.0,NNE,4.6,-,N/A,,Mostly Cloudy,20,2013-02-27 04:55:00